Regional Weather Roundup
Issued by NWS Burlington, VT

Home | Current Version | Previous Version | Text Only | Print | Product List | Glossary On
Versions: 1 2 3 4 5 6 7 8 9 10 11 12 13 14 15 16 17 18 19 20 21 22 23 24 25 26 27 28 29 30 31 32 33 34 35 36 37 38 39 40 41 42 43 44 45 46 47 48 49 50
000
ASUS41 KBTV 250530
RWRBTV
VERMONT REGIONAL WEATHER ROUNDUP
NATIONAL WEATHER SERVICE BURLINGTON VT
1200 AM EST THU DEC 25 2014

NOTE: "FAIR" INDICATES FEW OR NO CLOUDS BELOW 12,000 FEET WITH NO
SIGNIFICANT WEATHER AND/OR OBSTRUCTIONS TO VISIBILITY.

* THESE REPORTS ARE NOT UNDER NWS QUALITY CONTROL AND/OR DO NOT
  REPORT WEATHER SUCH AS PRECIPITATION AND FOG.

VTZ001>019-250600-
_____VERMONT_____


CITY           SKY/WX    TMP DP  RH WIND       PRES   REMARKS
BURLINGTON     CLOUDY    48  45  89 S9G17     29.39F
MONTPELIER     CLOUDY    39  38  96 SE6       29.52F
MORRISVILLE    CLOUDY    40  38  93 SE3       29.46F
ST. JOHNSBURY*   N/A     36  36 100 MISG      29.50F
LYNDONVILLE*   FOG       40  37  92 CALM      29.51F VSB 1/2
MIDDLEBURY*    FOG       41  41 100 CALM      29.42F VSB 1/2
RUTLAND*       CLOUDY    48  45  87 SE17      29.43F
SPRINGFIELD    FOG       33  33 100 CALM      29.53F VSB 1/4
HIGHGATE*      MOCLDY    45  44  97 S9        29.36F
NEWPORT*       CLOUDY    39  38  98 S9        29.45F
BENNINGTON     CLOUDY    59  54  83 SE10      29.47F
SUTTON*          N/A     39 N/A N/A MISG        N/A
GALLUP MILLS*    N/A     32 N/A N/A MISG        N/A
UNION VILLAGE*   N/A     34 N/A N/A MISG        N/A
MT. MANSFIELD*   N/A     46 N/A N/A CALM        N/A

_____LAKE CHAMPLAIN_____


CITY           SKY/WX    TMP DP  RH WIND       PRES   REMARKS
BURTON ISLAND*   N/A     45  43  93 SE20        N/A
COLCHESTER RF*   N/A     45  45 100 S23         N/A

$$

NYZ007-026>031-035-052-083-250600-
_____NORTHERN NEW YORK_____


CITY           SKY/WX    TMP DP  RH WIND       PRES   REMARKS
PLATTSBURGH    CLOUDY    44  43  96 SE15      29.38F
SARANAC LAKE   CLOUDY    46  45  96 S9        29.34F
MASSENA        FOG       37  36  96 E6        29.30F VSB 1/2
POTSDAM*       CLEAR     48  48 100 S6        29.25F
STARK FALLS*     N/A     46 N/A N/A SE20        N/A
WATERTOWN      CLOUDY    59  48  67 S17G31    29.22F
FT DRUM        CLOUDY    48  45  87 SE15      29.37F
ALBANY         FOG       52  50  93 S10       29.44F VSB 1
GLENS FALLS    FOG       38  36  92 CALM      29.45F VSB 1/2

$$
NHZ002-005-011-250600-
_____NEW HAMPSHIRE_____


CITY           SKY/WX    TMP DP  RH WIND       PRES   REMARKS
LEBANON        CLOUDY    35  33  92 SE3       29.53F FOG
KEENE          CLOUDY    39  37  93 N3        29.53F
MT WASHINGTON  FOG       43  43 100 W58G69      N/A  VSB 0
PLYMOUTH       FOG       34  34 100 CALM      29.56F VSB 1
WHITEFIELD     FOG       38  37  97 CALM      29.48F VSB 3/4

$$

_____REGIONAL QUEBEC LOCATIONS_____


CITY           SKY/WX    TMP DP  RH WIND       PRES   REMARKS
MONTREAL       MOCLDY    37  36  93 NE8       29.35F
QUEBEC CITY    LGT RAIN  36  36 100 E7        29.46F FOG
SHERBROOKE     CLOUDY    41  41 100 S3        29.42F

_____REGIONAL ONTARIO LOCATIONS_____


CITY           SKY/WX    TMP DP  RH WIND       PRES   REMARKS
OTTAWA         FOG       37  37 100 E14       29.25F VSB 1/4

______KEY______
VSB  - VISIBILITY IN MILES
WCI  - WIND CHILL INDEX
HX   - HEAT INDEX
$$



USA.gov is the U.S. government's official web portal to all federal, state and local government web resources and services.